Location: Puketoi
(40.5833°S, 176.0167°E)
Time: 15:12:21
(UTC+00:00)

BREEZE-M DEB (TANK) - Pass Details

Date: 08 February 2023
Orbit: 320 x 11945 km, 49.7° (Epoch: 22 March)

Event Time Altitude Azimuth Distance (km) Brightness Sun altitude
Exits shadow 14:05:51 71° 42° (NE) 1,154 3.5 -30.2°
Maximum altitude 14:05:51 71° 42° (NE) 1,155 3.5 -30.2°
Drops below altitude 10° 14:19:57 10° 122° (ESE) 6,399 8.2 -28.9°
Sets 14:28:49 0° 122° (ESE) 9,384 9.3 -28.0°
